Location: ?????
(31.8092°N, 35.2590°E)
Time: 18:13:19
(UTC+00:00)

NPP - Pass Details

Date: 20 June 2021
Orbit: 826 x 828 km, 98.7° (Epoch: 31 July)

Event Time Altitude Azimuth Distance (km) Brightness Sun altitude
Rises 23:28:05 0° 10° (N) 3,370 7.9 -29.1°
Reaches altitude 10° 23:30:27 10° 8° (N) 2,433 6.9 -28.8°
Enters shadow 23:35:26 69° 317° (NW) 883 3.7 -28.3°
